Location: Peebles
(55.6412°N, 3.1714°W)
Time: 02:43:04
(UTC+01:00)

deb r/b Ablestar - Pass Details

Date: 12 July 2022
Orbit: 859 x 1154 km, 67.2° (Epoch: 13 August)

Event Time Altitude Azimuth Distance (km) Brightness Sun altitude
Rises 01:06:08 0° 318° (NW) 4,027 ? -12.3°
Reaches altitude 10° 01:09:10 10° 308° (NW) 3,066 ? -12.3°
Maximum altitude 01:15:23 31° 251° (WSW) 1,884 ? -12.4°
Enters shadow 01:20:22 14° 197° (SSW) 2,671 ? -12.4°
